Flag for Sweden Weather past 2 weeks in Stockholm, Sweden

Now
68 °F

Passing clouds.


Feels Like: 68 °F
Forecast: 55 / 68 °F
Wind: 10 mph from East

Location: Stockholm Bromma Airport

Current Time: Jul 10, 2014 at 8:52:33 PM

Latest Report: Jul 10, 2014 at 8:20 PM


Visibility: N/A

Pressure: 30.12 "Hg

Humidity: 60%

Dew point: 54 °F

Location of StockholmLocation

Historic Weather in Stockholm — Graph

°F

Stockholm temperature yesterday

Maximum temperature yesterday: 79 °F (at 2:50 PM)
Minimum temperature yesterday: 63 °F (at 3:50 AM)
Average temperature yesterday: 72 °F

Past Weeks' High & Low Weather Summary

 TemperatureHumidityPressure
High82 °F (Jul 7, 12:20 PM)100% (Jun 29, 1:20 AM)30.12 "Hg (Jun 29, 1:20 AM)
Low41 °F (Jun 26, 3:50 AM)30% (Jun 26, 12:50 PM)29.65 "Hg (Jun 29, 6:20 PM)
Average62 °F71%29.93 "Hg
* Reported Jun 25 7:20 PM — Jul 10 7:50 PM, Stockholm, Weather by CustomWeather, © 2014

Note: Actual official high and low records may vary slightly from our data, if they occured in-between our weather recording intervals... More about our weather records

Advertising

Stockholm weather history for previous 24 hours

 ConditionsComfort  
Time TempWeatherWind HumidityBarometerVisibility
7:50 PM
Jul 10
68 °FPassing clouds.10 mph64%30.12 "HgN/A
7:20 PM70 °FSunny.12 mph64%30.09 "Hg10 mi
6:50 PM70 °FSunny.12 mph64%30.09 "Hg10 mi
6:20 PM72 °FSunny.12 mph65%30.09 "Hg10 mi
5:50 PM73 °FPassing clouds.12 mph61%30.09 "HgN/A
5:20 PM75 °FSunny.10 mph61%30.09 "Hg10 mi
4:50 PM75 °FSunny.10 mph61%30.09 "Hg10 mi
4:20 PM75 °FSunny.12 mph57%30.09 "Hg10 mi
3:50 PM75 °FSunny.14 mph57%30.09 "Hg10 mi
3:20 PM77 °FSunny.13 mph54%30.09 "Hg10 mi
2:50 PM79 °FSunny.16 mph51%30.07 "Hg10 mi
2:20 PM81 °FSunny.13 mph48%30.07 "Hg10 mi
1:50 PM82 °FSunny.12 mph45%30.07 "Hg10 mi
1:20 PM82 °FPassing clouds.8 mph40%30.07 "HgN/A
12:50 PM82 °FPassing clouds.9 mph42%30.07 "HgN/A
12:20 PM82 °FPassing clouds.8 mph40%30.07 "HgN/A
11:50 AM82 °FPassing clouds.8 mph42%30.07 "HgN/A
11:20 AM81 °FPassing clouds.7 mph42%30.07 "HgN/A
10:50 AM81 °FPassing clouds.6 mph45%30.07 "HgN/A
10:20 AM77 °FSunny.6 mph54%30.07 "Hg10 mi
9:50 AM77 °FSunny.6 mph54%30.07 "Hg10 mi
9:20 AM75 °FSunny.5 mph57%30.07 "Hg10 mi
8:50 AM73 °FPassing clouds.3 mph61%30.07 "HgN/A
8:20 AM72 °FSunny.5 mph65%30.04 "Hg10 mi
7:50 AM70 °FPassing clouds.5 mph69%30.04 "HgN/A
7:20 AM68 °FPassing clouds.3 mph73%30.04 "HgN/A
6:50 AM66 °FSunny.3 mph73%30.04 "Hg10 mi
6:20 AM64 °FSunny.3 mph78%30.04 "Hg10 mi
5:50 AM64 °FSunny.3 mph73%30.04 "Hg10 mi
5:20 AM63 °FMild.3 mph77%30.04 "HgN/A
4:50 AM63 °FMild.2 mph77%30.04 "HgN/A
4:20 AM61 °FCool.3 mph77%30.04 "HgN/A
3:20 AM59 °FCool.3 mph82%30.04 "HgN/A
2:50 AM59 °FCool.3 mph88%30.04 "HgN/A
2:20 AM59 °FCool.2 mph82%30.04 "HgN/A
1:50 AM64 °FMild.3 mph68%30.04 "HgN/A
1:20 AM63 °FMild.3 mph73%30.07 "HgN/A
12:50 AM64 °FMild.3 mph73%30.07 "HgN/A
12:20 AM66 °FMild.5 mph68%30.07 "HgN/A
11:50 PM
Jul 9
64 °FMild.3 mph73%30.07 "HgN/A
11:20 PM64 °FMild.3 mph78%30.07 "HgN/A
10:50 PM66 °FMild.3 mph73%30.04 "HgN/A
10:20 PM72 °FMild.3 mph57%30.07 "HgN/A
9:50 PM72 °FSunny.3 mph57%30.07 "Hg10 mi
9:20 PM73 °FSunny.5 mph50%30.07 "Hg10 mi
8:50 PM75 °FSunny.7 mph47%30.04 "Hg10 mi
8:20 PM75 °FPassing clouds.7 mph47%30.04 "HgN/A
Weather by CustomWeather, © 2014

See weather overviewHow to use our weather pages